Location: Unspecified
(0.0000°N, 0.0000°E)
Time: 03:31:28
(UTC+00:00)

ISS - Pass Details

Date: 21 January 2018
Orbit: 402 x 407 km, 51.6° (Epoch: 24 January)

Event Time Altitude Azimuth Distance (km) Brightness Sun altitude
Exits shadow 05:39:22 - 336° (NNW) 2,120 -0.6 -7.5°
Reaches altitude 10° 05:41:03 10° 342° (NNW) 1,452 -1.4 -7.1°
Maximum altitude 05:44:09 42° 55° (NE) 588 -2.7 -6.4°
Drops below altitude 10° 05:47:17 10° 127° (SE) 1,460 0.5 -5.6°
Sets 05:49:25 0° 134° (SE) 2,322 1.4 -5.1°
